Location: *
(46.4000°N, 12.6667°E)
Time: 08:50:44
(UTC+00:00)

Cosmos 1726 - Pass Details

Date: 09 April 2020
Orbit: 481 x 500 km, 82.5° (Epoch: 24 May)

Event Time Altitude Azimuth Distance (km) Brightness Sun altitude
Rises 19:01:14 0° 213° (SSW) 2,583 5.8 -12.5°
Reaches altitude 10° 19:03:33 10° 225° (SW) 1,704 5.1 -12.9°
Maximum altitude 19:06:49 28° 286° (WNW) 961 4.4 -13.4°
Drops below altitude 10° 19:10:06 10° 347° (NNW) 1,711 5.4 -13.9°
Sets 19:12:26 0° 360° (N) 2,597 6.2 -14.2°
